User: anonymous   Login
Location: Unspecified
(0.0000°N, 0.0000°E)
Time: 15:25:04
(UTC+00:00)
Language:

UFO 9 - Orbit

View from above orbital plane
View from above orbital plane
View from above satellite
View from above satellite

Ground track
Ground track

The orbit data is extracted from the following two-line orbital elements,

1 25501U 98058A   18038.99330366 0.00000000  00000-0  00000-0 0    05
2 25501   8.2091  32.9438 0014309 313.0929  46.7994  0.98171972    01
Epoch (UTC): 07 February 2018 23:50:21
Eccentricity: 0.0014309
inclination: 8.2091°
perigee height: 36324 km
apogee height: 36446 km
right ascension of ascending node: 32.9438°
argument of perigee: 313.0929°
revolutions per day: 0.98171972
mean anomaly at epoch: 46.7994°
orbit number at epoch: 0

The dashed part of the orbit path shows where the satellite is in the earth's shadow,  

DLR